timestamp,wind_dir_avg,wind_spd_avg,wind_spd_max_dir,wind_spd_gust,battery_voltage,lat,long
2021-08-13 00:04:01+00:00,208.0,5.09,209.0,5.54,12.65,47.59359,-54.27349
2021-08-13 00:14:01+00:00,214.0,5.27,218.0,5.78,12.65,47.59359,-54.27349
2021-08-13 00:24:01+00:00,215.0,5.03,214.0,5.79,12.65,47.59359,-54.27349
2021-08-13 00:34:01+00:00,217.0,5.57,217.0,6.27,12.65,47.59359,-54.27349
2021-08-13 00:44:01+00:00,213.0,6.27,215.0,7.42,12.65,47.59359,-54.27349
2021-08-13 00:54:01+00:00,210.0,6.02,207.0,6.65,12.65,47.59359,-54.27349
2021-08-13 01:04:01+00:00,210.0,5.78,214.0,6.2,12.65,47.59359,-54.27349
2021-08-13 01:14:01+00:00,205.0,5.16,205.0,5.55,12.65,47.59359,-54.27349
2021-08-13 01:24:01+00:00,206.0,5.59,211.0,6.27,12.65,47.59359,-54.27349
2021-08-13 01:34:01+00:00,210.0,5.65,209.0,6.34,12.65,47.59359,-54.27349
2021-08-13 01:44:01+00:00,216.0,5.3,216.0,6.07,12.65,47.59359,-54.27349
2021-08-13 01:54:01+00:00,215.0,5.08,213.0,5.71,12.65,47.59359,-54.27349
2021-08-13 02:04:01+00:00,208.0,4.4,204.0,4.92,12.65,47.59359,-54.27349
2021-08-13 02:14:01+00:00,215.0,5.16,214.0,5.7,12.65,47.59359,-54.27349
2021-08-13 02:24:01+00:00,215.0,5.39,216.0,6.11,12.65,47.59359,-54.27349
2021-08-13 02:34:01+00:00,215.0,4.99,215.0,5.67,12.65,47.59359,-54.27349
2021-08-13 02:44:01+00:00,216.0,5.42,222.0,6.16,12.65,47.59359,-54.27349
2021-08-13 02:54:01+00:00,218.0,5.25,223.0,5.89,12.65,47.59359,-54.27349
2021-08-13 03:04:01+00:00,223.0,5.5,224.0,6.97,12.65,47.59359,-54.27349
2021-08-13 03:14:01+00:00,224.0,5.94,227.0,6.98,12.65,47.59359,-54.27349
2021-08-13 03:24:01+00:00,212.0,5.53,215.0,6.71,12.65,47.59359,-54.27349
2021-08-13 03:34:01+00:00,212.0,5.4,210.0,6.03,12.65,47.59359,-54.27349
2021-08-13 03:44:01+00:00,209.0,5.42,211.0,6.22,12.65,47.59359,-54.27349
2021-08-13 03:54:01+00:00,219.0,5.39,216.0,6.07,12.65,47.59359,-54.27349
2021-08-13 04:04:01+00:00,210.0,5.15,212.0,6.06,12.65,47.59359,-54.27349
2021-08-13 04:14:01+00:00,203.0,4.91,201.0,5.3,12.57,47.59359,-54.27349
2021-08-13 04:24:01+00:00,209.0,5.15,206.0,5.55,12.57,47.59359,-54.27349
2021-08-13 04:34:01+00:00,204.0,5.05,205.0,5.66,12.57,47.59359,-54.27349
2021-08-13 04:44:01+00:00,194.0,5.3,190.0,5.79,12.57,47.59359,-54.27349
2021-08-13 04:54:01+00:00,199.0,5.2,201.0,5.54,12.57,47.59359,-54.27349
2021-08-13 05:04:01+00:00,195.0,4.81,195.0,5.13,12.57,47.59359,-54.27349
2021-08-13 05:14:01+00:00,201.0,5.71,204.0,6.6,12.57,47.59359,-54.27349
2021-08-13 05:24:01+00:00,199.0,3.78,202.0,4.22,12.57,47.59359,-54.27349
2021-08-13 05:34:01+00:00,217.0,4.84,214.0,5.6,12.57,47.59359,-54.27349
2021-08-13 05:44:01+00:00,231.0,5.79,232.0,6.96,12.57,47.59359,-54.27349
2021-08-13 05:54:01+00:00,214.0,5.93,214.0,6.48,12.57,47.59359,-54.27349
2021-08-13 06:04:01+00:00,211.0,5.3,206.0,6.02,12.57,47.59359,-54.27349
2021-08-13 06:14:01+00:00,218.0,4.88,228.0,5.31,12.57,47.59359,-54.27349
2021-08-13 06:24:01+00:00,215.0,5.73,214.0,6.34,12.57,47.59359,-54.27349
2021-08-13 06:34:01+00:00,215.0,5.09,215.0,6.28,12.57,47.59359,-54.27349
2021-08-13 06:44:01+00:00,221.0,5.15,220.0,5.64,12.57,47.59359,-54.27349
2021-08-13 06:54:01+00:00,214.0,5.96,213.0,6.57,12.57,47.59359,-54.27349
2021-08-13 07:04:01+00:00,214.0,5.89,214.0,6.52,12.57,47.59359,-54.27349
2021-08-13 07:14:00+00:00,218.0,6.01,223.0,6.88,12.49,47.59359,-54.27349
2021-08-13 07:24:00+00:00,215.0,5.85,216.0,6.61,12.49,47.59359,-54.27349
2021-08-13 07:34:00+00:00,209.0,5.81,207.0,6.49,12.49,47.59359,-54.27349
2021-08-13 07:44:00+00:00,209.0,4.85,217.0,5.6,12.49,47.59359,-54.27349
2021-08-13 07:54:00+00:00,206.0,4.89,207.0,5.28,12.49,47.59359,-54.27349
2021-08-13 08:04:00+00:00,207.0,5.45,207.0,6.02,12.49,47.59359,-54.27349
2021-08-13 08:14:01+00:00,208.0,4.95,204.0,5.53,12.49,47.59359,-54.27349
2021-08-13 08:24:01+00:00,211.0,4.73,216.0,5.49,12.49,47.59359,-54.27349
2021-08-13 08:34:01+00:00,212.0,4.85,214.0,5.23,12.49,47.59359,-54.27349
2021-08-13 08:44:01+00:00,228.0,4.56,228.0,5.38,12.49,47.59359,-54.27349
2021-08-13 08:54:01+00:00,215.0,4.47,213.0,5.04,12.49,47.59359,-54.27349
2021-08-13 09:04:01+00:00,219.0,5.08,229.0,5.83,12.49,47.59359,-54.27349
2021-08-13 09:14:01+00:00,208.0,5.3,213.0,5.66,12.41,47.59359,-54.27349
2021-08-13 09:24:01+00:00,192.0,5.58,194.0,6.19,12.41,47.59359,-54.27349
2021-08-13 09:34:01+00:00,217.0,3.95,214.0,4.59,12.41,47.59359,-54.27349
2021-08-13 09:44:01+00:00,214.0,3.63,215.0,4.2,12.41,47.59359,-54.27349
2021-08-13 09:54:01+00:00,216.0,3.54,216.0,4.28,12.41,47.59359,-54.27349
2021-08-13 10:04:01+00:00,203.0,3.34,205.0,4.03,12.41,47.59359,-54.27349
2021-08-13 10:14:01+00:00,219.0,3.35,216.0,3.97,12.41,47.59359,-54.27349
2021-08-13 10:24:01+00:00,214.0,3.5,219.0,4.01,12.41,47.59359,-54.27349
2021-08-13 10:34:01+00:00,195.0,2.56,192.0,2.93,12.41,47.59359,-54.27349
2021-08-13 10:44:01+00:00,171.0,1.98,172.0,2.31,12.41,47.59359,-54.27349
2021-08-13 10:54:01+00:00,192.0,3.16,194.0,4.05,12.41,47.59359,-54.27349
2021-08-13 11:04:01+00:00,187.0,4.03,186.0,4.61,12.41,47.59359,-54.27349
2021-08-13 11:14:01+00:00,195.0,5.05,197.0,5.78,12.57,47.59359,-54.27349
2021-08-13 11:24:01+00:00,198.0,4.98,200.0,5.62,12.57,47.59359,-54.27349
2021-08-13 11:34:01+00:00,189.0,4.69,185.0,5.05,12.57,47.59359,-54.27349
2021-08-13 11:44:01+00:00,198.0,4.32,198.0,5.01,12.57,47.59359,-54.27349
2021-08-13 11:54:01+00:00,199.0,5.16,198.0,5.7,12.57,47.59359,-54.27349
2021-08-13 12:04:01+00:00,206.0,4.32,206.0,4.78,12.57,47.59359,-54.27349
2021-08-13 12:14:01+00:00,251.0,3.55,255.0,4.36,13.6,47.59359,-54.27349
2021-08-13 12:24:01+00:00,242.0,3.3,229.0,4.08,13.6,47.59359,-54.27349
2021-08-13 12:34:01+00:00,205.0,6.14,210.0,6.69,13.6,47.59359,-54.27349
2021-08-13 12:44:01+00:00,212.0,4.8,210.0,5.22,13.6,47.59359,-54.27349
2021-08-13 12:54:01+00:00,207.0,5.8,211.0,6.38,13.6,47.59359,-54.27349
2021-08-13 13:04:01+00:00,200.0,7.08,197.0,7.84,13.6,47.59359,-54.27349
2021-08-13 13:14:00+00:00,205.0,7.24,195.0,8.12,13.76,47.59359,-54.27349
2021-08-13 13:24:00+00:00,209.0,7.27,209.0,7.97,13.76,47.59359,-54.27349
2021-08-13 13:34:00+00:00,209.0,6.51,206.0,7.6,13.76,47.59359,-54.27349
2021-08-13 13:44:00+00:00,219.0,6.12,218.0,7.16,13.76,47.59359,-54.27349
2021-08-13 13:54:00+00:00,227.0,5.35,228.0,6.15,13.76,47.59359,-54.27349
2021-08-13 14:04:00+00:00,190.0,6.61,195.0,7.88,13.76,47.59359,-54.27349
2021-08-13 14:14:01+00:00,188.0,7.01,186.0,7.82,13.6,47.59359,-54.27349
2021-08-13 14:24:01+00:00,185.0,7.81,182.0,8.68,13.6,47.59359,-54.27349
2021-08-13 14:34:01+00:00,185.0,7.93,185.0,8.7,13.6,47.59359,-54.27349
2021-08-13 14:44:01+00:00,185.0,7.01,182.0,7.91,13.6,47.59359,-54.27349
2021-08-13 14:54:01+00:00,181.0,7.21,185.0,8.49,13.6,47.59359,-54.27349
2021-08-13 15:04:01+00:00,189.0,7.14,189.0,7.79,13.6,47.59359,-54.27349
2021-08-13 15:14:01+00:00,190.0,6.66,189.0,8.04,13.76,47.59359,-54.27349
2021-08-13 15:24:01+00:00,192.0,7.4,191.0,8.35,13.76,47.59359,-54.27349
2021-08-13 15:34:01+00:00,199.0,7.03,201.0,8.02,13.76,47.59359,-54.27349
2021-08-13 15:44:01+00:00,203.0,7.94,209.0,9.16,13.76,47.59359,-54.27349
2021-08-13 15:54:01+00:00,199.0,8.08,196.0,9.35,13.76,47.59359,-54.27349
2021-08-13 16:04:01+00:00,202.0,7.25,206.0,8.68,13.76,47.59359,-54.27349
2021-08-13 16:14:01+00:00,206.0,5.54,205.0,6.39,13.84,47.59359,-54.27349
2021-08-13 16:24:01+00:00,208.0,5.52,204.0,6.06,13.84,47.59359,-54.27349
2021-08-13 16:34:01+00:00,216.0,6.26,217.0,6.86,13.84,47.59359,-54.27349
2021-08-13 16:44:01+00:00,213.0,6.17,213.0,6.85,13.84,47.59359,-54.27349
2021-08-13 16:54:01+00:00,216.0,5.51,217.0,6.0,13.84,47.59359,-54.27349
2021-08-13 17:04:01+00:00,209.0,6.24,212.0,7.0,13.84,47.59359,-54.27349
2021-08-13 17:14:01+00:00,206.0,6.42,209.0,7.13,13.76,47.59359,-54.27349
2021-08-13 17:24:01+00:00,205.0,6.07,202.0,6.84,13.76,47.59359,-54.27349
2021-08-13 17:34:01+00:00,219.0,5.4,219.0,6.02,13.76,47.59359,-54.27349
2021-08-13 17:44:01+00:00,211.0,6.46,214.0,6.93,13.76,47.59359,-54.27349
2021-08-13 17:54:01+00:00,195.0,6.22,196.0,6.8,13.76,47.59359,-54.27349
2021-08-13 18:04:01+00:00,193.0,5.48,193.0,6.0,13.76,47.59359,-54.27349
2021-08-13 18:14:01+00:00,193.0,5.28,193.0,5.77,13.68,47.59359,-54.27349
2021-08-13 18:24:01+00:00,223.0,5.72,226.0,6.5,13.68,47.59359,-54.27349
2021-08-13 18:34:01+00:00,226.0,5.11,232.0,5.58,13.68,47.59359,-54.27349
2021-08-13 18:44:01+00:00,244.0,3.9,235.0,5.0,13.68,47.59359,-54.27349
2021-08-13 18:54:01+00:00,228.0,2.48,228.0,2.97,13.68,47.59359,-54.27349
2021-08-13 19:04:01+00:00,215.0,4.29,220.0,4.94,13.68,47.59359,-54.27349
2021-08-13 19:14:01+00:00,215.0,7.21,214.0,7.87,13.37,47.59359,-54.27349
2021-08-13 19:24:01+00:00,218.0,5.26,216.0,6.11,13.37,47.59359,-54.27349
2021-08-13 19:34:01+00:00,236.0,5.13,236.0,5.82,13.37,47.59359,-54.27349
2021-08-13 19:44:01+00:00,228.0,5.97,225.0,6.72,13.37,47.59359,-54.27349
2021-08-13 19:54:01+00:00,213.0,4.07,214.0,5.06,13.37,47.59359,-54.27349
2021-08-13 20:04:01+00:00,235.0,4.36,243.0,4.76,13.37,47.59359,-54.27349
2021-08-13 20:14:01+00:00,218.0,3.67,225.0,4.68,13.21,47.59359,-54.27349
2021-08-13 20:24:01+00:00,208.0,5.41,207.0,6.23,13.21,47.59359,-54.27349
2021-08-13 20:34:01+00:00,190.0,4.93,190.0,5.26,13.21,47.59359,-54.27349
2021-08-13 20:44:01+00:00,183.0,3.48,184.0,3.87,13.21,47.59359,-54.27349
2021-08-13 20:54:01+00:00,217.0,3.46,217.0,4.52,13.21,47.59359,-54.27349
2021-08-13 21:04:01+00:00,192.0,3.26,195.0,3.64,13.21,47.59359,-54.27349
2021-08-13 21:14:01+00:00,195.0,4.15,194.0,4.97,13.05,47.59359,-54.27349
2021-08-13 21:24:01+00:00,195.0,4.59,197.0,5.39,13.05,47.59359,-54.27349
2021-08-13 21:34:01+00:00,186.0,6.19,187.0,6.91,13.05,47.59359,-54.27349
2021-08-13 21:44:01+00:00,181.0,6.21,183.0,6.7,13.05,47.59359,-54.27349
2021-08-13 21:54:01+00:00,218.0,3.9,222.0,4.24,13.05,47.59359,-54.27349
2021-08-13 22:04:01+00:00,214.0,5.2,208.0,5.95,13.05,47.59359,-54.27349
2021-08-13 22:14:01+00:00,209.0,7.31,207.0,7.67,12.73,47.59359,-54.27349
2021-08-13 22:24:01+00:00,205.0,7.06,202.0,7.61,12.73,47.59359,-54.27349
2021-08-13 22:34:01+00:00,217.0,6.74,215.0,7.5,12.73,47.59359,-54.27349
2021-08-13 22:44:01+00:00,213.0,6.86,217.0,7.43,12.73,47.59359,-54.27349
2021-08-13 22:54:01+00:00,209.0,6.72,213.0,7.25,12.73,47.59359,-54.27349
2021-08-13 23:04:01+00:00,209.0,7.1,208.0,7.78,12.73,47.59359,-54.27349
2021-08-13 23:14:00+00:00,210.0,7.31,210.0,8.16,12.65,47.59359,-54.27349
2021-08-13 23:24:00+00:00,210.0,6.96,206.0,7.5,12.65,47.59359,-54.27349
2021-08-13 23:34:00+00:00,210.0,7.36,210.0,7.99,12.65,47.59359,-54.27349
2021-08-13 23:44:00+00:00,215.0,6.8,215.0,7.31,12.65,47.59359,-54.27349
2021-08-13 23:54:00+00:00,213.0,8.23,214.0,8.82,12.65,47.59359,-54.27349
